Content
SEND FEEDBACK

Daily
Averages
Monthly
Summary
United Kingdom

PERSHORE, ENGLAND


Home > Europe > United Kingdom > England
Elevation: 132 feet     Latitude: 52 08N     Longitude: 002 02W

WEATHER
 
SELECT A DAY
Number of Records: 110,876;   Date Range: 7/1/96 - 7/20/14
 
SHARE

PRINT THIS DATA

[ ← Previous Day ]
WEATHER ALMANAC - OCTOBER 15, 2013
[ Next Day → ]
[ °C ]   °F
Weather ElementAverageHighLow
Temperature52.2 °F57.2 °F (3:50 pm)44.6 °F (7:20 am)
Dewpoint46 °F48.2 °F (10:50 am)41 °F (8:20 am)
Humidity80 %93 % (7:20 am)67 % (4:50 pm)
Barometer29.86 in29.92 in (7:20 pm)29.80 in (7:20 am)
Wind Speed1.7 mph4.6 mph (2:20 pm)
Weather ElementAverage
Visibility6.2 mi
Wind DirectionESE (104.4 °)

Weather ElementTotal
Precipitation---
Heating Degree Days14.1 (Base 65)
Growing Degree Days0.9 (Base 50)
Averaged from 25 records on October 15, 2013
WEATHER CONDITIONS BREAKOUT
WIND DIRECTION BREAKOUT
WEATHER BY HOUR - OCTOBER 15, 2013
[ °C ]   °F
Local TimeTemperatureDewpointHumidityBarometerVisibilityWind DirectionWind SpeedGust SpeedPrecipitationEventsConditions
7:20 AM44.6 °F42.8 °F93 %29.80 in5.6 miCalmFogFog
7:50 AM44.6 °F42.8 °F93 %29.80 in6.2 miCalmFogShallow Fog
8:20 AM44.6 °F41.0 °F87 %29.83 in6.2 miCalmFogShallow Fog
8:50 AM46.4 °F42.8 °F87 %29.83 in6.2 miWSW (240°)3.5 mphMostly Cloudy
9:20 AM46.4 °F44.6 °F93 %29.83 in6.2 miWSW (250°)2.3 mphMostly Cloudy
9:50 AM46.4 °F44.6 °F93 %29.83 in6.2 miCalmMostly Cloudy
10:20 AM48.2 °F46.4 °F93 %29.86 in6.2 miCalmScattered Clouds
10:50 AM51.8 °F48.2 °F88 %29.86 in6.2 miCalmPartly Cloudy
11:20 AM53.6 °F46.4 °F77 %29.86 in6.2 miWNW (300°)3.5 mphMostly Cloudy
11:50 AM53.6 °F46.4 °F77 %29.86 in6.2 miWNW (290°)3.5 mphMostly Cloudy
12:20 PM53.6 °F46.4 °F77 %29.86 in6.2 miWNW (290°)3.5 mphMostly Cloudy
12:50 PM53.6 °F46.4 °F77 %29.86 in6.2 miNorth (350°)3.5 mphScattered Clouds
1:20 PM55.4 °F48.2 °F77 %29.86 in6.2 miNNW (330°)2.3 mphScattered Clouds
1:50 PM55.4 °F46.4 °F72 %29.86 in6.2 miNorth (10°)2.3 mphMostly Cloudy
2:20 PM55.4 °F46.4 °F72 %29.86 in6.2 miNNE (20°)4.6 mphMostly Cloudy
2:50 PM55.4 °F48.2 °F77 %29.86 in6.2 miNNE (30°)3.5 mphMostly Cloudy
3:20 PM55.4 °F48.2 °F77 %29.86 in6.2 miNNE (20°)4.6 mphScattered Clouds
3:50 PM57.2 °F48.2 °F72 %29.86 in6.2 miCalmScattered Clouds
4:20 PM57.2 °F48.2 °F72 %29.86 in6.2 miCalmPartly Cloudy
4:50 PM57.2 °F46.4 °F67 %29.86 in6.2 miNorth (350°)2.3 mphPartly Cloudy
5:20 PM57.2 °F46.4 °F67 %29.86 in6.2 miCalmPartly Cloudy
5:50 PM55.4 °F46.4 °F72 %29.89 inCalmClear
6:20 PM53.6 °F46.4 °F77 %29.89 inCalmClear
6:50 PM53.6 °F46.4 °F77 %29.89 inCalmClear
7:20 PM50.0 °F46.4 °F87 %29.92 inSE (130°)2.3 mphClear
Hourly data recorded from EGBJ, located miles away from Pershore, England







STORIES FROM OUR PARTNERS